Espaço - Ciências - Fenômenos Naturais
Meteógrafos Informações Meteorológicas em tempo real

Aeroporto de Congonhas

Histórico do Tempo
Temperatura atual: 24 graus 75 F    Umidade relativa: 41 %
Velocidade do vento: 05 nós 9 Km/h    Direção: 360 graus N
Ajuste do altímetro ..: 1025 HPA
Visibilidade: Ótima    Tempo presente: Céu Limpo

Observação

Data Hora BRTTempo°CUmidadePressãoVentoVisib.
23/07 - 14:55   Céu Limpo 24° 41% 1025 Norte/9 km/h OK
23/07 - 13:55   Céu Limpo 23° 46% 1026 Norte-nordeste/7 km/h OK
23/07 - 12:55   Céu Limpo 21° 56% 1028 Este-nordeste/9 km/h OK
23/07 - 11:55   Céu Limpo 21° 56% 1028 Este-nordeste/9 km/h OK
23/07 - 10:55   Céu Limpo 18° 68% 1028 Este-nordeste/14 km/h OK
23/07 - 09:55   Não Disponível 17° 72% 1028 Este-nordeste/12 km/h OK
23/07 - 08:55   Parcialmente Nublado 15° 82% 1027 Este-nordeste/14 km/h 8000
23/07 - 07:55   Parcialmente Nublado 15° 82% 1027 Este-nordeste/12 km/h 8000
23/07 - 06:55   Muitas Nuvens 15° 82% 1026 Leste/10 km/h OK
23/07 - 05:55   Muitas Nuvens 15° 82% 1026 Leste/10 km/h OK
23/07 - 04:55   Céu Encoberto 15° 82% 1025 Leste/9 km/h 9999
23/07 - 03:55   Céu Encoberto 15° 82% 1025 Leste/12 km/h 9999
23/07 - 02:55   Céu Encoberto 15° 77% 1026 Leste/10 km/h 9999
23/07 - 01:55   Poucas nuvens esparsas 15° 77% 1026 Este-sudeste/9 km/h 9999
23/07 - 00:55   Poucas nuvens esparsas 14° 82% 1026 Leste/10 km/h 8000
22/07 - 23:55   Céu Encoberto 14° 82% 1026 Este-sudeste/12 km/h 6000
22/07 - 22:55   Névoa úmida 15° 82% 1026 Sudeste/10 km/h 5000
22/07 - 21:55   Névoa úmida 15° 82% 1026 Sudeste/10 km/h 5000
22/07 - 20:55   Névoa úmida 15° 77% 1026 Este-sudeste/9 km/h 5000
22/07 - 19:55   Parcialmente Nublado 15° 77% 1025 Sul-sudeste/12 km/h 6000
22/07 - 18:55   Parcialmente Nublado 15° 77% 1025 Sudeste/14 km/h 6000
22/07 - 17:55   Parcialmente Nublado 15° 77% 1025 Sudeste/16 km/h 7000
22/07 - 16:55   Não Disponível 16° 77% 1024 Sudeste/16 km/h OK
22/07 - 15:55   Céu Limpo 20° 56% 1024 Sul-sudeste/16 km/h OK


Apolo11.com - Todos os direitos reservados - 2000 - 2017
Política de Privacidade   |     Termo de Uso e Licenciamento   |  -   Entre em Contato

"O homem é um animal social que detesta os seus iguais" - Eugene Delacroix